Вернуться в каталог

CZ-4C R/B

АктивенSSO
NORAD 48080·ROCKET BODY·🇨🇳 China

Запущен Mar 30, 2021 с Jiuquan Satellite Launch Center

Loading…

Ближайшие Пролёты (ближайшие 24 часа)

TLE

СвежийSource: Space-Track

Эпоха: Sep 14, 2026, 09:24 UTC

1 48080U 21026B   26257.39215208  .00002306  00000-0  11582-3 0  9994
2 48080  97.7236 309.9613 0039370  89.0211 271.5532 15.17692264300360

Отслеживайте CZ-4C R/B в реальном времени с AllMySat

Download on the App Store